This is the latest recevied weather packets stored in our database for station/object W8LMG. If no packets are shown the sender has not sent any weather packets the latest 10 day(s).
| Time | Temp. | Humidity | Pressure | Rain* | Wind** | Luminosity | Snow |
|---|---|---|---|---|---|---|---|
| 1778019830 | 23.89° C | 33% | 1011.7 hPa | 0 mm | - | 165 W/m² | - |
| 1778019527 | 23.33° C | 32% | 1011.9 hPa | 0 mm | - | 109 W/m² | - |
| 1778019224 | 23.89° C | 30% | 1011.9 hPa | 0 mm | - | 189 W/m² | - |
| 1778018921 | 23.89° C | 34% | 1012 hPa | 0 mm | - | 207 W/m² | - |
| 1778018618 | 23.89° C | 33% | 1012 hPa | 0 mm | - | 224 W/m² | - |
| 1778018316 | 24.44° C | 31% | 1011.9 hPa | 0 mm | - | 248 W/m² | - |
| 1778018014 | 24.44° C | 33% | 1012.2 hPa | 0 mm | - | 298 W/m² | - |
| 1778017711 | 23.33° C | 34% | 1012.1 hPa | 0 mm | - | 341 W/m² | - |
| 1778017409 | 22.78° C | 32% | 1011.8 hPa | 0 mm | - | 196 W/m² | - |
| 1778017105 | 23.33° C | 31% | 1012 hPa | 0 mm | - | 117 W/m² | - |
| 1778016803 | 23.89° C | 30% | 1012.1 hPa | 0 mm | - | 199 W/m² | - |
| 1778016499 | 23.89° C | 30% | 1011.8 hPa | 0 mm | - | 234 W/m² | - |
| 1778016197 | 23.89° C | 30% | 1012.1 hPa | 0 mm | - | 218 W/m² | - |
| 1778015892 | 23.89° C | 30% | 1012.1 hPa | 0 mm | - | 188 W/m² | - |
| 1778015590 | 24.44° C | 29% | 1012.1 hPa | 0 mm | - | 262 W/m² | - |
| 1778015286 | 23.89° C | 30% | 1012.2 hPa | 0 mm | - | 403 W/m² | - |
| 1778014983 | 23.33° C | 33% | 1012.2 hPa | 0 mm | - | 274 W/m² | - |
| 1778014681 | 23.33° C | 30% | 1012.1 hPa | 0 mm | - | 152 W/m² | - |
| 1778014379 | 23.89° C | 32% | 1012 hPa | 0 mm | - | 231 W/m² | - |
| 1778014075 | 23.89° C | 30% | 1012.3 hPa | 0 mm | - | 394 W/m² | - |
| 1778013773 | 23.89° C | 31% | 1012.2 hPa | 0 mm | - | 305 W/m² | - |
| 1778013470 | 23.89° C | 32% | 1012.2 hPa | 0 mm | - | 294 W/m² | - |
| 1778013167 | 24.44° C | 31% | 1012.2 hPa | 0 mm | - | 396 W/m² | - |
| 1778012863 | 23.89° C | 32% | 1012.4 hPa | 0 mm | - | 388 W/m² | - |
| 1778012559 | 23.89° C | 31% | 1012.3 hPa | 0 mm | - | 379 W/m² | - |
* Rain latest hour (hover to see other rain measurements)
** Current wind speed in m/s (hover to see current wind gust speed)